Location: Newark
(46.3567°N, 6.1428°E)
Time: 22:51:35
(UTC+00:00)

First-Move - Visible Passes

Search period start: 23 September 2020 00:00
Search period end: 03 October 2020 00:00
Orbit: 577 x 667 km, 97.6° (Epoch: 22 September)

Date Brightness Start Highest point End Pass type
(mag) Time Alt. Az. Time Alt. Az. Time Alt. Az.
24 Sep ? 03:45:44 10° ENE 03:47:26 12° E 03:49:08 10° ESE visible
25 Sep ? 04:02:30 10° NE 04:05:38 18° E 04:08:45 10° SE visible
26 Sep ? 04:19:55 10° NE 04:23:47 26° E 04:27:38 10° SSE visible
27 Sep ? 04:37:34 10° NNE 04:41:53 39° E 04:46:10 10° SSE visible
28 Sep ? 04:55:23 10° NNE 04:59:56 59° E 05:04:26 10° S visible
29 Sep ? 03:40:26 10° ENE 03:41:05 10° E 03:41:43 10° E visible
30 Sep ? 03:56:31 10° NE 03:59:18 16° E 04:02:04 10° SE visible
01 Oct ? 04:13:47 10° NE 04:17:28 23° E 04:21:06 10° SE visible
02 Oct ? 04:31:23 10° NNE 04:35:35 34° E 04:39:42 10° SSE visible
